CDT,Max TemperatureF,Mean TemperatureF,Min TemperatureF,Max Dew PointF,MeanDew PointF,Min DewpointF,Max Humidity, Mean Humidity, Min Humidity, Max Sea Level PressureIn, Mean Sea Level PressureIn, Min Sea Level PressureIn, Max VisibilityMiles, Mean VisibilityMiles, Min VisibilityMiles, Max Wind SpeedMPH, Mean Wind SpeedMPH, Max Gust SpeedMPH,PrecipitationIn, CloudCover, Events, WindDirDegrees
2013-3-1,28,18,3,12,8,-2,79,63,43,30.44,30.38,30.27,10,10,10,12,4,,0.00,4,,41
2013-3-2,27,10,-6,11,3,-13,84,59,41,30.42,30.32,30.18,10,10,9,8,2,,0.00,3,,176
2013-3-3,32,25,18,8,5,1,60,42,30,30.17,30.08,30.02,10,10,10,14,6,21,0.00,7,,132
2013-3-4,27,24,21,20,16,5,84,71,44,30.08,29.99,29.92,10,3,1,17,8,28,0.09,8,Snow,116
2013-3-5,28,22,16,21,19,11,86,78,69,30.37,30.15,29.98,10,3,0,16,7,20,0.13,8,Snow,36
2013-3-6,27,15,3,16,10,-3,84,69,51,30.48,30.41,30.33,10,10,6,12,5,,0.00,5,,347
2013-3-7,32,12,-7,14,5,-13,83,63,45,30.43,30.38,30.32,10,10,5,10,3,17,0.00,0,,134
2013-3-8,36,25,14,23,18,7,86,71,57,30.32,30.26,30.11,10,6,2,12,5,,0.00,4,,175
2013-3-9,35,32,30,36,30,23,100,88,72,30.09,29.84,29.71,10,2,0,13,4,,0.72,8,Fog-Rain-Snow,85
2013-3-10,33,28,24,28,22,17,87,78,69,30.09,30.00,29.84,10,8,6,20,13,25,0.00,8,,4
2013-3-11,28,23,18,19,16,12,81,74,66,30.02,29.86,29.77,10,9,2,10,7,,0.00,7,Snow,335
2013-3-12,28,21,15,14,10,5,79,65,45,30.25,30.01,29.86,10,9,2,22,9,29,0.00,5,Snow,333
2013-3-13,30,16,3,13,9,-2,87,68,45,30.41,30.33,30.25,10,10,9,8,4,,0.00,1,,225
2013-3-14,37,29,21,25,21,14,86,77,62,30.20,30.11,30.04,10,5,0,8,5,,0.11,5,Fog-Snow,169
2013-3-15,32,24,19,25,20,12,86,77,51,30.03,29.96,29.90,10,3,0,15,8,20,0.06,8,Snow,36
2013-3-16,21,11,0,14,3,-9,80,63,48,30.34,30.16,29.97,10,8,2,16,9,25,0.00,3,Snow,341
2013-3-17,23,4,-15,11,-4,-22,82,58,40,30.34,30.15,29.79,10,9,2,14,6,23,0.00,4,Snow,128
2013-3-18,28,19,10,25,13,1,86,74,58,29.85,29.64,29.48,10,4,0,21,14,31,0.10,7,Fog-Rain-Snow,207
2013-3-19,21,12,3,1,-3,-9,73,51,38,30.24,30.10,29.77,10,10,10,20,14,28,0.00,0,,298
2013-3-20,23,12,1,3,-3,-9,61,52,40,30.26,30.21,30.15,10,10,10,16,12,25,0.00,1,,318
2013-3-21,28,8,-11,7,-2,-17,80,60,39,30.20,30.15,30.10,10,10,7,7,2,,0.00,0,,338
2013-3-22,37,14,-8,10,2,-15,87,55,27,30.16,30.12,30.09,10,10,5,7,2,,0.00,0,,294
2013-3-23,41,22,5,19,12,1,84,57,33,30.19,30.15,30.12,10,10,9,9,2,,0.00,3,,252
2013-3-24,34,30,26,25,21,16,81,71,54,30.14,30.09,30.03,10,6,1,15,6,21,0.00,8,Snow,31
2013-3-25,36,28,19,17,14,10,68,56,43,30.28,30.21,30.14,10,10,10,18,11,23,0.00,2,,341
2013-3-26,41,30,21,19,15,12,74,54,32,30.34,30.31,30.28,10,10,10,10,5,,0.00,6,,303
2013-3-27,42,32,24,17,15,12,71,51,33,30.36,30.34,30.32,10,10,10,8,2,,0.00,3,,233
2013-3-28,42,26,12,22,16,9,84,61,41,30.38,30.34,30.30,10,10,7,10,2,,0.00,2,,195
2013-3-29,45,36,28,35,28,21,79,68,56,30.30,30.20,30.03,10,8,6,12,4,,0.00,3,Rain,175
2013-3-30,53,44,35,37,34,27,93,78,40,30.01,29.89,29.86,10,4,0,14,6,20,0.14,6,Fog-Rain,281
2013-3-31,35,28,19,29,19,7,82,62,37,30.16,29.89,29.75,10,8,1,24,12,39,0.00,5,Snow,309